Weather History for KEDW - November, 2012

Change the Weather History Date:

Thursday, November 1, 2012

  Actual Average Record
Temperature  
Mean Temperature 61 °F -  
Max Temperature 79 °F 68 °F 82 °F (1997)
Min Temperature 44 °F 38 °F 32 °F (2000)
Degree Days  
Heating Degree Days 4    
Growing Degree Days 11 (Base 50)    
Moisture  
Dew Point 28 °F    
Average Humidity 34    
Maximum Humidity 65    
Minimum Humidity 9    
Precipitation  
Precipitation 0.00 in - - ()
Sea Level Pressure  
Sea Level Pressure 29.92 in    
Wind  
Wind Speed 9 mph (SW)    
Max Wind Speed 23 mph    
Max Gust Speed 26 mph    
Visibility 10 miles    
Events      
Averages and records for this station are not official NWS values.
T = Trace of Precipitation, MM = Missing Value Source: NWS Daily Summary

Daily Weather History Graph

Daily Weather History Graph

Search for Another Location

Airport or City:

Trip Planner

Search our weather history database for the weather conditions in past years. The results will help you decide how hot, cold, wet, or windy it might be!

Date:

Astronomy

Nov. 01, 2012 Rise Set
Actual Time 7:12 AM PDT 5:56 PM PDT
Civil Twilight 6:46 AM PDT 6:22 PM PDT
Nautical Twilight 6:16 AM PDT 6:52 PM PDT
Astronomical Twilight 5:47 AM PDT 7:22 PM PDT
Moon 8:02 PM PDT (11/1) 9:44 AM PDT (11/1)
Length of Visible Light 11h 36m
Length of Day
10h 43m
Waning Gibbous, 92% of the Moon is Illuminated
Nov 1
Waning Gibbous
Nov 6
Last Quarter
Nov 13
New
Nov 20
First Quarter
Nov 28
Full

Hourly Weather History & Observations

Time (PDT) Temp. Windchill Dew Point Humidity Pressure Visibility Wind Dir Wind Speed Gust Speed Precip Events Conditions
12:55 AM 54.7 °F - 22.8 °F 29% 29.93 in 10.0 mi SSW 10.4 mph - N/A   Clear
1:55 AM 52.0 °F - 23.4 °F 33% 29.94 in 10.0 mi Calm Calm - N/A   Mostly Cloudy
2:55 AM 49.8 °F - 26.1 °F 40% 29.93 in 10.0 mi South 5.8 mph - N/A   Partly Cloudy
3:55 AM 52.2 °F - 29.1 °F 41% 29.91 in 10.0 mi SSW 8.1 mph - N/A   Clear
4:55 AM 50.9 °F - 28.6 °F 42% 29.92 in 10.0 mi Calm Calm - N/A   Clear
5:55 AM 45.1 °F 42.8 °F 23.7 °F 43% 29.94 in 30.0 mi South 4.6 mph - N/A   Scattered Clouds
6:55 AM 46.0 °F 43.9 °F 25.5 °F 45% 29.94 in 90.0 mi SSE 4.6 mph - N/A   Mostly Cloudy
7:55 AM 44.2 °F - 23.9 °F 45% 29.96 in 90.0 mi Calm Calm - N/A   Mostly Cloudy
8:55 AM 50.2 °F - 28.0 °F 42% 29.97 in 80.0 mi Calm Calm - N/A   Mostly Cloudy
9:55 AM 59.4 °F - 30.4 °F 33% 29.96 in 80.0 mi SSE 3.5 mph - N/A   Mostly Cloudy
10:55 AM 67.6 °F - 24.8 °F 20% 29.96 in 80.0 mi SW 5.8 mph - N/A   Mostly Cloudy
11:55 AM 73.4 °F - 20.1 °F 13% 29.93 in 80.0 mi WSW 11.5 mph - N/A   Mostly Cloudy
12:55 PM 76.5 °F - 18.1 °F 11% 29.88 in 90.0 mi WSW 15.0 mph - N/A   Scattered Clouds
1:55 PM 78.6 °F - 15.1 °F 9% 29.86 in 90.0 mi SW 15.0 mph 20.7 mph N/A   Scattered Clouds
2:53 PM 78.8 °F - 15.8 °F 9% 29.89 in 90.0 mi SW 19.6 mph 24.2 mph N/A   Mostly Cloudy
2:55 PM 78.3 °F - 15.4 °F 9% 29.86 in 90.0 mi SW 17.3 mph 24.2 mph N/A   Mostly Cloudy
3:55 PM 76.6 °F - 19.9 °F 12% 29.86 in 80.0 mi SW 17.3 mph 25.3 mph N/A   Mostly Cloudy
4:55 PM 73.2 °F - 30.2 °F 20% 29.87 in 80.0 mi WSW 23.0 mph 26.5 mph N/A   Mostly Cloudy
5:55 PM 69.1 °F - 31.3 °F 25% 29.89 in 70.0 mi WSW 16.1 mph - N/A   Mostly Cloudy
6:55 PM 63.5 °F - 41.0 °F 44% 29.92 in 30.0 mi West 15.0 mph - N/A   Mostly Cloudy
7:55 PM 60.1 °F - 41.7 °F 51% 29.93 in 30.0 mi SW 9.2 mph - N/A   Scattered Clouds
8:55 PM 57.9 °F - 42.4 °F 56% 29.93 in 30.0 mi SW 11.5 mph - N/A   Scattered Clouds
9:55 PM 57.7 °F - 39.0 °F 50% 29.92 in 30.0 mi WSW 16.1 mph - N/A   Scattered Clouds
10:55 PM 55.9 °F - 43.2 °F 62% 29.92 in 10.0 mi SW 13.8 mph - N/A   Clear
11:55 PM 54.1 °F - 42.6 °F 65% 29.91 in 10.0 mi SW 9.2 mph - N/A   Clear